Location: Barcelona
(41.3830°N, 2.1830°E)
Time: 08:45:17
(UTC+02:00)

ISS - Pass Details

Date: 23 July 2017
Orbit: 400 x 408 km, 51.6° (Epoch: 21 July)

Event Time Altitude Azimuth Distance (km) Brightness Sun altitude
Rises 00:11:30 0° 256° (WSW) 2,303 0.2 -23.8°
Reaches altitude 10° 00:13:42 10° 266° (W) 1,447 -0.8 -24.0°
Maximum altitude 00:16:40 33° 333° (NNW) 695 -2.1 -24.2°
Drops below altitude 10° 00:19:41 10° 40° (NE) 1,453 -0.8 -24.5°
Sets 00:21:53 0° 51° (NE) 2,315 0.2 -24.6°
